Regional Weather Roundup
Issued by NWS Kansas City/Pleasant Hill, MO

Home | Current Version | Previous Version | Graphics & Text | Print | Product List | Glossary Off
Versions: 1 2 3 4 5 6 7 8 9 10 11 12 13 14 15 16 17 18 19 20 21 22 23 24 25 26 27

000
ASUS43 KEAX 271310
RWREAX

WEATHER ROUNDUP FOR EASTERN KANSAS AND NORTHWEST MISSOURI
NATIONAL WEATHER SERVICE KANSAS CITY/PLEASANT HILL MO
800 AM CDT SAT MAY 27 2017

KSZ040-057-103>105-MOZ028-029-037-043-271400-
...KANSAS CITY METROPOLITAN AREA...

CITY           SKY/WX    TMP DP  RH WIND       PRES   REMARKS
K.C. INTL      CLOUDY    69  65  86 W8        29.91R
K.C. DOWNTOWN  PTSUNNY   72  66  81 NW7       29.89R
LEES SUMMIT    MOSUNNY   71  68  90 NW6       29.88R
OLATHE - IXD   MOSUNNY   69  67  93 NW8       29.91R
OLATHE - OJC   PTSUNNY   70  68  93 NW9       29.91R
LAWRENCE       TSTM      63  60  90 NW23G38   29.92R

$$

MOZ001>008-011>017-020>025-030>033-038>040-044>046-053-054-271400-
...NORTHERN AND CENTRAL MISSOURI...

CITY           SKY/WX    TMP DP  RH WIND       PRES   REMARKS
ST. JOSEPH     CLOUDY    68  66  93 W6        29.92R
MOSBY          CLOUDY    70  66  88 CALM      29.87R
WARRENSBURG    SUNNY     70  66  88 E7        29.82F
WHITEMAN AFB   MOSUNNY   70  70 100 E8        29.82F
CLINTON        SUNNY     68  68 100 E8        29.82F
SEDALIA        SUNNY     71  70  96 E10       29.85S
WARSAW         NOT AVBL
CHILLICOTHE      N/A     68  64  87 VRB3      29.86F
KIRKSVILLE     CLOUDY    65  61  87 E5        29.89S

$$

MOZ041-047>049-056>058-063>065-088>090-097-271400-
...EASTERN AND SOUTHERN MISSOURI...

CITY           SKY/WX    TMP DP  RH WIND       PRES   REMARKS
ST. LOUIS INTL MOSUNNY   73  65  75 N6        29.87F
SPIRIT OF STL  SUNNY     72  68  87 NE5       29.86F
COLUMBIA       SUNNY     71  68  90 E6        29.87F
JEFFERSON CITY SUNNY     73  67  81 SE6       29.86S
ROLLA          CLOUDY    68  68 100 E8        29.87S FOG
OSAGE BEACH    CLOUDY    69  68  96 E6        29.87S
SPRINGFIELD    SUNNY     72  69  90 SE9       29.84R
BRANSON        MOSUNNY   70  66  88 SE7       29.88R
JOPLIN         MOSUNNY   78  74  87 S12       29.81R
WEST PLAINS    PTSUNNY   69  65  86 SW5       29.89R

$$

IAZ060-094-KSZ022-034>040-054-083-096-NEZ052-066-093-271400-
...KANSAS...SOUTHEAST NEBRASKA AND IOWA...

CITY           SKY/WX    TMP DP  RH WIND       PRES   REMARKS
TOPEKA         CLOUDY    62  60  93 E6        29.89S THUNDER
MANHATTAN      LGT RAIN  61  59  93 W5        29.87R
EMPORIA        MOSUNNY   66  61  84 N12       29.87F
CHANUTE        CLOUDY    71  67  87 N8        29.83R
WICHITA        MOSUNNY   69  63  81 NE15      29.82F
OMAHA          CLOUDY    61  49  64 NW7       29.87F
LINCOLN        RAIN      57  53  86 NW8       29.95F FOG
FALLS CITY     TSTM      59  56  89 W5        29.92R FOG
LAMONI         CLOUDY    64  62  93 E3        29.87S
DES MOINES     CLOUDY    64  61  90 E5        29.87F FOG

$$





USA.gov is the U.S. government's official web portal to all federal, state and local government web resources and services.